{"data":{"norad_id":69994,"epoch":"2026-09-19T19:52:32.939328Z","epoch_age_seconds":75849,"freshness":"FRESH","line1":"1 69994U 26159V   26262.82815902  .00030587  00000+0  56128-3 0  9990","line2":"2 69994  97.2835 104.6493 0000649 102.9759 257.1565 15.49219683 12341","mean_motion":15.49219683,"eccentricity":6.49e-5,"inclination_deg":97.2835,"raan_deg":104.6493,"arg_perigee_deg":102.9759,"mean_anomaly_deg":257.1565,"bstar":0.00056128,"rev_number":1234,"period_min":92.950019664835,"perigee_km":418.56638509513,"apogee_km":419.44865445379,"semimajor_km":6797.1445197745,"source":"CELESTRAK","updated_at":"2026-09-20T09:00:44.331924Z"}}